Orbital Elements at Epoch 2459200.5 (2020-Dec-17.0) TDB
Reference: JPL 19 (heliocentric ecliptic J2000)
Element | Value | Uncertainty (1-sigma) | Units |
e | .2224004113286678 | 8.2054e-08 | |
a | 2.631683170180814 | 3.6555e-08 | au |
q | 2.046395750645868 | 2.2301e-07 | au |
i | 13.56374769492248 | 7.9392e-06 | deg |
node | 132.9214586910078 | 3.0391e-05 | deg |
peri | 230.7064253206019 | 3.3762e-05 | deg |
M | 231.8892451012949 | 2.4698e-05 | deg |
tp | 2459755.421972206043 (2022-Jun-24.92197221) | 0.00011678 | TDB |
period | 1559.368767689578 4.27 | 3.249e-05 8.895e-08 | d yr |
n | .2308626461291707 | 4.8101e-09 | deg/d |
Q | 3.216970589715759 | 4.4685e-08 | au |
|
| | Orbit Determination Parameters
Additional Information
|